FW2273 Weather Reports


Display with metric or nautical units.
time (UTC)temp
F
wind
direction
speed
MPH
gust
MPH
rain 1hr
in
rain 24hr
in
rain mn
in
humidity
%
barometer
mb
20260906074543 69 279 0.0 0.0 0.00 0.00 0.00 97 1008.9
20260906073042 69 279 0.0 0.0 0.00 0.00 0.00 97 1008.8
20260906071540 69 279 0.0 0.0 0.00 0.00 0.00 97 1009.0
20260906070040 69 279 0.0 0.0 0.00 0.00 0.00 97 1009.0
20260906064539 69 279 0.0 0.0 0.00 0.00 0.00 97 1009.1
20260906063038 69 279 0.0 0.0 0.00 0.00 0.00 97 1009.4
20260906061539 69 279 0.0 0.0 0.00 0.00 0.00 97 1009.2
20260906060037 69 279 0.0 0.0 0.00 0.00 0.00 97 1009.3
20260906054533 69 279 0.0 0.0 0.00 0.00 0.00 97 1009.6
20260906053034 69 279 0.0 0.0 0.00 0.00 0.00 97 1010.0
20260906051503 69 279 0.0 0.0 0.00 0.00 0.00 97 1010.1
20260906050003 69 279 0.0 0.0 0.00 0.00 0.00 97 1010.4
20260906044501 69 279 0.0 0.0 0.00 0.00 0.00 96 1010.3
20260906043100 68 279 0.0 0.0 0.00 0.00 0.00 96 1010.3
20260906043002 68 279 0.0 0.0 0.00 0.00 0.00 96 1010.5
20260906041600 69 279 0.0 0.0 0.00 0.00 0.00 96 1010.3
20260906040059 68 279 0.0 0.0 0.00 0.00 0.00 96 1010.3
20260906034557 69 279 0.0 0.0 0.00 0.00 0.00 96 1010.1
20260906033100 69 279 0.0 0.0 0.00 0.00 0.00 96 1010.2
20260906031559 69 279 0.0 0.0 0.00 0.00 0.00 96 1010.2
20260906030056 69 279 0.0 0.0 0.00 0.00 0.00 96 1009.9
20260906024554 69 279 0.0 0.0 0.00 0.00 0.00 95 1009.8
20260906023053 69 279 0.0 0.0 0.00 0.00 0.00 95 1009.9
20260906021558 70 279 0.0 0.0 0.00 0.00 0.00 95 1010.0
20260906020055 70 279 0.0 0.0 0.00 0.00 0.00 95 1009.6
20260906014552 70 279 0.0 0.0 0.00 0.00 0.00 94 1009.3
20260906013049 70 279 0.0 0.0 0.00 0.00 0.00 94 1009.4
20260906011602 71 279 0.0 0.0 0.00 0.00 0.00 94 1009.4
20260906010047 71 279 0.0 0.0 0.00 0.00 0.00 93 1009.2
20260906004545 72 279 0.0 0.0 0.00 0.00 0.00 93 1009.1
20260906003044 72 279 0.0 0.0 0.00 0.00 0.00 93 1009.4
20260906001543 73 279 0.0 0.0 0.00 0.00 0.00 93 1008.9
20260906000043 73 279 0.0 0.0 0.00 0.00 0.00 93 1009.1
20260905234540 74 279 0.0 0.0 0.00 0.00 0.00 93 1008.7
20260905233102 74 279 0.0 0.0 0.00 0.00 0.00 92 1008.6
20260905231550 75 279 0.0 0.0 0.00 0.00 0.00 92 1008.6
20260905230043 75 279 0.0 0.0 0.00 0.00 0.00 92 1008.3
20260905224547 75 279 0.0 0.0 0.00 0.00 0.00 92 1008.2
20260905223035 75 279 0.0 0.0 0.00 0.00 0.00 93 1008.3
20260905221539 76 279 0.0 0.0 0.00 0.00 0.00 93 1008.1
20260905220033 75 279 0.0 0.0 0.00 0.00 0.00 93 1008.4
20260905214501 75 279 0.0 0.0 0.00 0.00 0.00 93 1008.5
20260905213001 75 279 0.0 0.0 0.00 0.00 0.00 93 1008.6
20260905211559 75 279 0.0 0.0 0.00 0.00 0.00 93 1008.6
20260905210059 75 279 0.0 0.0 0.00 0.00 0.00 92 1009.0
20260905204557 75 279 0.0 0.0 0.00 0.00 0.00 91 1009.1
20260905203058 75 279 0.0 0.0 0.00 0.00 0.00 89 1009.5
20260905201606 76 279 0.0 0.0 0.00 0.00 0.00 87 1009.2
20260905200053 77 279 0.0 0.0 0.00 0.00 0.00 86 1009.3
20260905194652 79 279 0.0 0.0 0.00 0.00 0.00 83 1009.6
20260905193051 81 279 0.0 2.0 0.00 0.00 0.00 82 1009.2
20260905191553 83 163 0.0 0.0 0.00 0.00 0.00 79 1009.3
20260905190100 85 163 0.0 4.0 0.00 0.00 0.00 74 1009.1
20260905184559 86 360 0.0 4.0 0.00 0.00 0.00 71 1009.1
20260905183043 85 254 0.0 0.0 0.00 0.00 0.00 79 1008.8
20260905181539 83 232 0.0 0.0 0.00 0.00 0.00 82 1008.7
20260905180031 81 184 0.0 2.0 0.00 0.00 0.00 83 1009.4
20260905174534 81 134 0.0 0.0 0.00 0.00 0.00 88 1009.8
20260905173030 80 134 0.0 0.0 0.00 0.00 0.00 87 1009.9
20260905171520 79 134 0.0 0.0 0.00 0.00 0.00 89 1010.0
20260905170013 78 153 0.0 0.0 0.00 0.00 0.00 90 1010.2
20260905164510 77 153 0.0 1.0 0.00 0.00 0.00 92 1010.1
20260905163006 75 200 0.0 0.0 0.00 0.00 0.00 95 1010.5
20260905161502 74 200 0.0 1.0 0.00 0.00 0.00 96 1010.6
20260905160059 74 200 1.0 2.0 0.00 0.00 0.00 97 1010.8
20260905154555 73 126 0.0 1.0 0.00 0.00 0.00 97 1010.8
20260905153054 73 206 0.0 0.0 0.00 0.00 0.00 98 1011.1
20260905151550 72 196 0.0 0.0 0.00 0.00 0.00 98 1011.0
20260905150018 72 196 0.0 0.0 0.00 0.00 0.00 98 1011.3
20260905144517 71 198 0.0 0.0 0.00 0.00 0.00 98 1011.4
20260905143016 71 209 0.0 0.0 0.00 0.00 0.00 98 1011.5
20260905141512 71 222 0.0 0.0 0.00 0.00 0.00 98 1011.5
20260905140010 70 278 0.0 0.0 0.00 0.00 0.00 98 1011.8
20260905134509 70 220 0.0 0.0 0.00 0.00 0.00 98 1012.0
20260905133005 70 220 0.0 0.0 0.00 0.00 0.00 98 1012.1
20260905131508 69 220 0.0 0.0 0.00 0.00 0.00 98 1012.2
20260905130003 69 220 0.0 0.0 0.00 0.00 0.00 98 1012.3
20260905124502 69 220 0.0 0.0 0.00 0.00 0.00 98 1012.3
20260905123107 69 220 0.0 0.0 0.00 0.00 0.00 98 1012.2
20260905121555 68 220 0.0 0.0 0.00 0.00 0.00 98 1011.9
20260905120054 68 220 0.0 0.0 0.00 0.00 0.00 98 1011.8
20260905114553 68 220 0.0 0.0 0.00 0.00 0.00 97 1011.8
20260905113021 68 220 0.0 0.0 0.00 0.00 0.00 97 1011.6
20260905111524 68 220 0.0 0.0 0.00 0.00 0.00 97 1011.5
20260905110018 68 220 0.0 0.0 0.00 0.00 0.00 97 1011.1
20260905104515 68 220 0.0 0.0 0.00 0.00 0.00 97 1010.9
20260905103025 68 220 0.0 0.0 0.00 0.00 0.00 97 1011.0
20260905101524 68 220 0.0 0.0 0.00 0.00 0.00 97 1010.8
20260905100010 68 220 0.0 0.0 0.00 0.00 0.00 97 1010.9
20260905094510 68 220 0.0 0.0 0.00 0.00 0.00 97 1010.9
20260905093009 68 220 0.0 0.0 0.00 0.00 0.00 97 1010.8
20260905091509 68 220 0.0 0.0 0.00 0.00 0.00 97 1010.8
20260905090007 68 220 0.0 0.0 0.00 0.00 0.00 97 1011.0
20260905084518 68 220 0.0 0.0 0.00 0.00 0.00 97 1011.1
20260905083008 68 220 0.0 0.0 0.00 0.00 0.00 97 1011.3
20260905081505 68 220 0.0 0.0 0.00 0.00 0.00 97 1011.4
20260905080003 67 220 0.0 0.0 0.00 0.00 0.00 97 1011.5